Fortuna, CA

4:21 PM PST on December 12, 2019 (GMT -0800)
Rohnerville

Weather History for KFOT - September, 2019

Change the Weather History Date:

Saturday, September 21, 2019

  Actual Average (KEKA) Record (KEKA)
Temperature  
Mean Temperature 60 °F -  
Max Temperature 68 °F 62 °F 85 °F (1939)
Min Temperature 53 °F 50 °F 39 °F (1895)
Degree Days  
Heating Degree Days 4    
Growing Degree Days 10 (Base 50)    
Moisture  
Dew Point 56 °F    
Average Humidity 87    
Maximum Humidity 100    
Minimum Humidity 64    
Precipitation  
Precipitation 0.00 in - - ()
Sea Level Pressure  
Sea Level Pressure 30.03 in    
Wind  
Wind Speed 7 mph ()    
Max Wind Speed 17 mph    
Max Gust Speed 23 mph    
Visibility 8.7 miles    
Events      
Averages and records for this station are not official NWS values.
T = Trace of Precipitation, MM = Missing Value Source: Averaged Metar Reports

Daily Weather History Graph

Daily Weather History Graph

Search for Another Location

Airport or City:

Astronomy

Sep. 21, 2019 Rise Set
Actual Time 7:02 AM PDT 7:15 PM PDT
Civil Twilight 6:35 AM PDT 7:42 PM PDT
Nautical Twilight 6:03 AM PDT 8:14 PM PDT
Astronomical Twilight 5:31 AM PDT 8:47 PM PDT
Moon 11:56 PM PDT (9/21) 2:16 PM PDT (9/21)
Length of Visible Light 13h 07m
Length of Day
12h 12m
Waning Gibbous, 53% of the Moon is Illuminated
Sep 21
Waning Gibbous
Sep 21
Last Quarter
Sep 28
New
Oct 5
First Quarter
Oct 13
Full

Hourly Weather History & Observations

Time (PDT) Temp. Dew Point Humidity Pressure Visibility Wind Dir Wind Speed Gust Speed Precip Events Conditions
12:15 AM 57.2 °F 55.4 °F 94% 30.04 in 9.0 mi SE 5.8 mph - N/A   Overcast
12:35 AM 57.2 °F 55.4 °F 94% 30.05 in 9.0 mi SE 5.8 mph - N/A   Overcast
12:55 AM 57.2 °F 55.4 °F 94% 30.05 in 6.0 mi Calm Calm - N/A   Overcast
1:15 AM 57.2 °F 55.4 °F 94% 30.05 in 5.0 mi Calm Calm - N/A   Mostly Cloudy
1:35 AM 57.2 °F 55.4 °F 94% 30.05 in 9.0 mi Calm Calm - N/A   Mostly Cloudy
1:55 AM 57.2 °F 55.4 °F 94% 30.05 in 10.0 mi Calm Calm - N/A   Scattered Clouds
2:15 AM 55.4 °F 55.4 °F 100% 30.05 in 9.0 mi SE 4.6 mph - N/A   Clear
2:35 AM 55.4 °F 53.6 °F 94% 30.05 in 8.0 mi ESE 6.9 mph - N/A   Partly Cloudy
2:55 AM 55.4 °F 55.4 °F 100% 30.05 in 7.0 mi SE 6.9 mph - N/A   Mostly Cloudy
3:15 AM 55.4 °F 53.6 °F 94% 30.05 in 7.0 mi ESE 6.9 mph - N/A   Mostly Cloudy
3:35 AM 55.4 °F 53.6 °F 94% 30.05 in 10.0 mi SE 5.8 mph - N/A   Overcast
3:55 AM 55.4 °F 53.6 °F 94% 30.04 in 10.0 mi SE 6.9 mph - N/A   Overcast
4:15 AM 55.4 °F 53.6 °F 94% 30.04 in 10.0 mi SE 6.9 mph - N/A   Overcast
4:35 AM 55.4 °F 53.6 °F 94% 30.05 in 10.0 mi SE 6.9 mph - N/A   Overcast
4:55 AM 55.4 °F 55.4 °F 100% 30.04 in 8.0 mi SE 8.1 mph - N/A   Overcast
5:15 AM 55.4 °F 53.6 °F 94% 30.04 in 5.0 mi SE 8.1 mph - N/A   Overcast
5:35 AM 53.6 °F 53.6 °F 100% 30.04 in 2.5 mi SE 8.1 mph - N/A   Overcast
5:55 AM 53.6 °F 53.6 °F 100% 30.04 in 0.8 mi SE 8.1 mph - N/A   Overcast
6:15 AM 53.6 °F 53.6 °F 100% 30.04 in 1.2 mi SE 8.1 mph - N/A   Overcast
6:35 AM 53.6 °F 53.6 °F 100% 30.04 in 0.8 mi SE 9.2 mph - N/A   Overcast
6:55 AM 53.6 °F 53.6 °F 100% 30.04 in 0.8 mi SE 8.1 mph - N/A   Overcast
7:15 AM 53.6 °F 53.6 °F 100% 30.04 in 1.0 mi SE 8.1 mph - N/A   Overcast
7:35 AM 53.6 °F 53.6 °F 100% 30.04 in 10.0 mi SE 8.1 mph - N/A   Partly Cloudy
7:55 AM 53.6 °F 53.6 °F 100% 30.04 in 10.0 mi SE 6.9 mph - N/A   Clear
8:15 AM 53.6 °F 53.6 °F 100% 30.05 in 10.0 mi SSE 5.8 mph - N/A   Clear
8:35 AM 55.4 °F 53.6 °F 94% 30.05 in 10.0 mi SSE 5.8 mph - N/A   Clear
8:55 AM 55.4 °F 53.6 °F 94% 30.05 in 10.0 mi SSE 5.8 mph - N/A   Clear
9:15 AM 57.2 °F 55.4 °F 94% 30.05 in 10.0 mi SSE 5.8 mph - N/A   Clear
9:35 AM 59.0 °F 55.4 °F 88% 30.05 in 10.0 mi SSE 3.5 mph - N/A   Clear
9:55 AM 60.8 °F 55.4 °F 82% 30.05 in 10.0 mi South 4.6 mph - N/A   Partly Cloudy
10:15 AM 62.6 °F 55.4 °F 77% 30.04 in 10.0 mi SSE 4.6 mph - N/A   Scattered Clouds
10:35 AM 64.4 °F 55.4 °F 73% 30.05 in 10.0 mi Calm Calm - N/A   Scattered Clouds
10:55 AM 66.2 °F 57.2 °F 73% 30.05 in 10.0 mi NW 4.6 mph - N/A   Clear
11:15 AM 68.0 °F 55.4 °F 64% 30.05 in 10.0 mi WNW 5.8 mph - N/A   Clear
11:35 AM 68.0 °F 57.2 °F 68% 30.04 in 10.0 mi WNW 8.1 mph - N/A   Clear
11:55 AM 68.0 °F 59.0 °F 73% 30.04 in 10.0 mi WNW 12.7 mph - N/A   Partly Cloudy
12:15 PM 68.0 °F 57.2 °F 68% 30.03 in 10.0 mi WNW 12.7 mph - N/A   Partly Cloudy
12:35 PM 68.0 °F 57.2 °F 68% 30.03 in 10.0 mi WNW 12.7 mph - N/A   Clear
12:55 PM 68.0 °F 57.2 °F 68% 30.02 in 10.0 mi WNW 13.8 mph - N/A   Partly Cloudy
1:15 PM 68.0 °F 57.2 °F 68% 30.02 in 10.0 mi West 17.3 mph - N/A   Partly Cloudy
1:35 PM 66.2 °F 55.4 °F 68% 30.02 in 10.0 mi West 16.1 mph 23.0 mph N/A   Partly Cloudy
1:55 PM 68.0 °F 55.4 °F 64% 30.02 in 10.0 mi West 16.1 mph - N/A   Partly Cloudy
2:15 PM 68.0 °F 55.4 °F 64% 30.01 in 10.0 mi West 15.0 mph 21.9 mph N/A   Partly Cloudy
2:35 PM 66.2 °F 55.4 °F 68% 30.01 in 10.0 mi West 13.8 mph 20.7 mph N/A   Partly Cloudy
2:55 PM 66.2 °F 57.2 °F 73% 30.01 in 10.0 mi West 15.0 mph - N/A   Partly Cloudy
3:15 PM 66.2 °F 57.2 °F 73% 30.01 in 10.0 mi West 13.8 mph 20.7 mph N/A   Clear
3:35 PM 66.2 °F 57.2 °F 73% 30.01 in 10.0 mi West 16.1 mph 21.9 mph N/A   Clear
3:55 PM 66.2 °F 57.2 °F 73% 30.01 in 10.0 mi West 17.3 mph 21.9 mph N/A   Clear
4:15 PM 64.4 °F 57.2 °F 77% 30.00 in 10.0 mi West 17.3 mph - N/A   Clear
4:35 PM 64.4 °F 57.2 °F 77% 30.01 in 10.0 mi West 13.8 mph - N/A   Clear
4:55 PM 64.4 °F 57.2 °F 77% 30.00 in 10.0 mi West 17.3 mph - N/A   Partly Cloudy
5:15 PM 64.4 °F 57.2 °F 77% 30.00 in 10.0 mi West 13.8 mph - N/A   Partly Cloudy
5:35 PM 62.6 °F 57.2 °F 82% 30.01 in 10.0 mi West 15.0 mph - N/A   Partly Cloudy
5:55 PM 62.6 °F 57.2 °F 82% 30.01 in 10.0 mi West 9.2 mph - N/A   Scattered Clouds
6:15 PM 60.8 °F 57.2 °F 88% 30.01 in 10.0 mi West 13.8 mph - N/A   Scattered Clouds
6:35 PM 59.0 °F 57.2 °F 94% 30.01 in 10.0 mi West 10.4 mph - N/A   Scattered Clouds
6:55 PM 59.0 °F 57.2 °F 94% 30.01 in 10.0 mi West 9.2 mph - N/A   Scattered Clouds
7:15 PM 59.0 °F 57.2 °F 94% 30.01 in 10.0 mi WNW 6.9 mph - N/A   Mostly Cloudy
7:35 PM 59.0 °F 57.2 °F 94% 30.01 in 10.0 mi West 5.8 mph - N/A   Overcast
7:55 PM 59.0 °F 57.2 °F 94% 30.01 in 10.0 mi West 9.2 mph - N/A   Overcast
8:15 PM 59.0 °F 57.2 °F 94% 30.01 in 10.0 mi WNW 6.9 mph - N/A   Overcast
8:55 PM 59.0 °F 57.2 °F 94% 30.02 in 10.0 mi NW 5.8 mph - N/A   Overcast
9:15 PM 59.0 °F 57.2 °F 94% 30.02 in 10.0 mi WNW 5.8 mph - N/A   Overcast
9:35 PM 59.0 °F 57.2 °F 94% 30.02 in 10.0 mi NW 6.9 mph - N/A   Overcast
9:55 PM 59.0 °F 57.2 °F 94% 30.02 in 10.0 mi NNW 5.8 mph - N/A   Overcast
10:15 PM 59.0 °F 57.2 °F 94% 30.02 in 9.0 mi NW 4.6 mph - N/A   Overcast
10:35 PM 59.0 °F 57.2 °F 94% 30.02 in 9.0 mi NW 3.5 mph - N/A   Overcast
10:55 PM 59.0 °F 57.2 °F 94% 30.02 in 10.0 mi NW 4.6 mph - N/A   Overcast
11:15 PM 59.0 °F 57.2 °F 94% 30.02 in 8.0 mi NNW 4.6 mph - N/A   Overcast
11:35 PM 59.0 °F 57.2 °F 94% 30.02 in 7.0 mi NW 4.6 mph - N/A   Overcast
11:55 PM 59.0 °F 57.2 °F 94% 30.02 in 8.0 mi WNW 4.6 mph - N/A   Overcast